Il 0% ha trovato utile questo documento (0 voti)
7 visualizzazioni7 pagine

ID Date/time Temperature (°C) Humidity (%RH)

Il documento presenta una serie di dati di temperatura e umidità registrati in un intervallo di tempo dal 5 al 6 settembre 2023. Le temperature variano da 21.80 °C a 19.50 °C, mentre l'umidità oscilla tra il 42.30% e il 36.00%. I dati sono organizzati in un formato tabellare con timestamp specifici per ogni misurazione.

Caricato da

indonnie9
Copyright
© All Rights Reserved
Per noi i diritti sui contenuti sono una cosa seria. Se sospetti che questo contenuto sia tuo, rivendicalo qui.
Formati disponibili
Scarica in formato PDF, TXT o leggi online su Scribd
Il 0% ha trovato utile questo documento (0 voti)
7 visualizzazioni7 pagine

ID Date/time Temperature (°C) Humidity (%RH)

Il documento presenta una serie di dati di temperatura e umidità registrati in un intervallo di tempo dal 5 al 6 settembre 2023. Le temperature variano da 21.80 °C a 19.50 °C, mentre l'umidità oscilla tra il 42.30% e il 36.00%. I dati sono organizzati in un formato tabellare con timestamp specifici per ogni misurazione.

Caricato da

indonnie9
Copyright
© All Rights Reserved
Per noi i diritti sui contenuti sono una cosa seria. Se sospetti che questo contenuto sia tuo, rivendicalo qui.
Formati disponibili
Scarica in formato PDF, TXT o leggi online su Scribd

Page 1/7

9/8/2023 2:37:39 PM

ID Date/time Temperature [°C] Humidity [%rH]

1 9/5/2023 1:56:00 PM 21.80 42.30

2 9/5/2023 2:11:00 PM 21.10 43.20

3 9/5/2023 2:26:00 PM 20.80 43.60

4 9/5/2023 2:41:00 PM 20.70 43.60

5 9/5/2023 2:56:00 PM 20.70 43.50

6 9/5/2023 3:11:00 PM 20.70 43.30

7 9/5/2023 3:26:00 PM 20.70 43.10

8 9/5/2023 3:41:00 PM 20.70 42.80

9 9/5/2023 3:56:00 PM 20.70 42.70

10 9/5/2023 4:11:00 PM 20.70 42.70

11 9/5/2023 4:26:00 PM 20.70 42.60

12 9/5/2023 4:41:00 PM 20.70 42.50

13 9/5/2023 4:56:00 PM 20.70 42.30

14 9/5/2023 5:11:00 PM 20.70 42.10

15 9/5/2023 5:26:00 PM 20.70 41.90

16 9/5/2023 5:41:00 PM 20.70 41.70

17 9/5/2023 5:56:00 PM 20.60 41.40

18 9/5/2023 6:11:00 PM 20.60 41.20

19 9/5/2023 6:26:00 PM 20.60 41.20

20 9/5/2023 6:41:00 PM 20.60 41.20

21 9/5/2023 6:56:00 PM 20.60 41.10

22 9/5/2023 7:11:00 PM 20.60 41.00

23 9/5/2023 7:26:00 PM 20.60 40.80

24 9/5/2023 7:41:00 PM 20.60 40.60

25 9/5/2023 7:56:00 PM 20.60 40.30

26 9/5/2023 8:11:00 PM 20.50 40.30

27 9/5/2023 8:26:00 PM 20.50 40.20

28 9/5/2023 8:41:00 PM 20.50 40.10

29 9/5/2023 8:56:00 PM 20.50 39.90

30 9/5/2023 9:11:00 PM 20.50 39.80

31 9/5/2023 9:26:00 PM 20.50 39.60


Page 2/7
9/8/2023 2:37:39 PM

ID Date/time Temperature [°C] Humidity [%rH]

32 9/5/2023 9:41:00 PM 20.40 39.60

33 9/5/2023 9:56:00 PM 20.40 39.50

34 9/5/2023 10:11:00 PM 20.40 39.40

35 9/5/2023 10:26:00 PM 20.40 39.30

36 9/5/2023 10:41:00 PM 20.40 39.20

37 9/5/2023 10:56:00 PM 20.40 39.00

38 9/5/2023 11:11:00 PM 20.30 38.90

39 9/5/2023 11:26:00 PM 20.30 38.70

40 9/5/2023 11:41:00 PM 20.30 38.70

41 9/5/2023 11:56:00 PM 20.20 38.50

42 9/6/2023 12:11:00 AM 20.20 38.50

43 9/6/2023 12:26:00 AM 20.20 38.30

44 9/6/2023 12:41:00 AM 20.20 38.10

45 9/6/2023 12:56:00 AM 20.10 37.90

46 9/6/2023 1:11:00 AM 20.10 37.80

47 9/6/2023 1:26:00 AM 20.10 37.60

48 9/6/2023 1:41:00 AM 20.10 37.50

49 9/6/2023 1:56:00 AM 20.00 37.40

50 9/6/2023 2:11:00 AM 20.00 37.30

51 9/6/2023 2:26:00 AM 20.00 37.10

52 9/6/2023 2:41:00 AM 19.90 36.90

53 9/6/2023 2:56:00 AM 19.90 36.90

54 9/6/2023 3:11:00 AM 19.90 36.70

55 9/6/2023 3:26:00 AM 19.90 36.70

56 9/6/2023 3:41:00 AM 19.80 36.60

57 9/6/2023 3:56:00 AM 19.80 36.50

58 9/6/2023 4:11:00 AM 19.80 36.40

59 9/6/2023 4:26:00 AM 19.80 36.30

60 9/6/2023 4:41:00 AM 19.80 36.30

61 9/6/2023 4:56:00 AM 19.70 36.30

62 9/6/2023 5:11:00 AM 19.70 36.20

63 9/6/2023 5:26:00 AM 19.70 36.10

64 9/6/2023 5:41:00 AM 19.60 36.10

65 9/6/2023 5:56:00 AM 19.60 36.10

66 9/6/2023 6:11:00 AM 19.60 36.10

67 9/6/2023 6:26:00 AM 19.60 36.00

68 9/6/2023 6:41:00 AM 19.50 36.10

69 9/6/2023 6:56:00 AM 19.50 36.20

70 9/6/2023 7:11:00 AM 19.50 36.40

71 9/6/2023 7:26:00 AM 19.50 36.60

72 9/6/2023 7:41:00 AM 19.50 36.80

73 9/6/2023 7:56:00 AM 19.60 37.00

74 9/6/2023 8:11:00 AM 19.60 37.30

75 9/6/2023 8:26:00 AM 19.70 37.60

76 9/6/2023 8:41:00 AM 19.70 37.80


Page 3/7
9/8/2023 2:37:39 PM

ID Date/time Temperature [°C] Humidity [%rH]

77 9/6/2023 8:56:00 AM 19.80 38.10

78 9/6/2023 9:11:00 AM 19.80 38.30

79 9/6/2023 9:26:00 AM 19.90 38.60

80 9/6/2023 9:41:00 AM 20.00 38.90

81 9/6/2023 9:56:00 AM 20.10 39.00

82 9/6/2023 10:11:00 AM 20.10 39.20

83 9/6/2023 10:26:00 AM 20.20 39.40

84 9/6/2023 10:41:00 AM 20.20 39.50

85 9/6/2023 10:56:00 AM 20.20 39.80

86 9/6/2023 11:11:00 AM 20.30 40.10

87 9/6/2023 11:26:00 AM 20.40 40.30

88 9/6/2023 11:41:00 AM 20.40 40.50

89 9/6/2023 11:56:00 AM 20.50 40.70

90 9/6/2023 12:11:00 PM 20.50 40.80

91 9/6/2023 12:26:00 PM 20.60 41.00

92 9/6/2023 12:41:00 PM 20.70 41.00

93 9/6/2023 12:56:00 PM 20.70 41.10

94 9/6/2023 1:11:00 PM 20.80 41.20

95 9/6/2023 1:26:00 PM 20.80 41.20

96 9/6/2023 1:41:00 PM 20.80 41.40

97 9/6/2023 1:56:00 PM 20.90 41.80

98 9/6/2023 2:11:00 PM 21.00 42.20

99 9/6/2023 2:26:00 PM 21.10 42.50

100 9/6/2023 2:41:00 PM 21.10 42.20

101 9/6/2023 2:56:00 PM 21.00 41.80

102 9/6/2023 3:11:00 PM 20.90 41.50

103 9/6/2023 3:26:00 PM 20.80 41.20

104 9/6/2023 3:41:00 PM 20.80 41.10

105 9/6/2023 3:56:00 PM 20.80 41.00

106 9/6/2023 4:11:00 PM 20.80 40.90

107 9/6/2023 4:26:00 PM 20.70 40.80

108 9/6/2023 4:41:00 PM 20.70 40.60

109 9/6/2023 4:56:00 PM 20.60 40.40

110 9/6/2023 5:11:00 PM 20.60 40.30

111 9/6/2023 5:26:00 PM 20.50 40.20

112 9/6/2023 5:41:00 PM 20.50 40.10

113 9/6/2023 5:56:00 PM 20.50 40.00

114 9/6/2023 6:11:00 PM 20.40 39.80

115 9/6/2023 6:26:00 PM 20.40 39.70

116 9/6/2023 6:41:00 PM 20.40 39.50

117 9/6/2023 6:56:00 PM 20.30 39.30

118 9/6/2023 7:11:00 PM 20.30 39.20

119 9/6/2023 7:26:00 PM 20.20 39.00

120 9/6/2023 7:41:00 PM 20.20 38.90

121 9/6/2023 7:56:00 PM 20.10 38.80


Page 4/7
9/8/2023 2:37:39 PM

ID Date/time Temperature [°C] Humidity [%rH]

122 9/6/2023 8:11:00 PM 20.10 38.70

123 9/6/2023 8:26:00 PM 20.10 38.60

124 9/6/2023 8:41:00 PM 20.00 38.50

125 9/6/2023 8:56:00 PM 20.00 38.40

126 9/6/2023 9:11:00 PM 20.00 38.20

127 9/6/2023 9:26:00 PM 19.90 38.10

128 9/6/2023 9:41:00 PM 19.90 38.10

129 9/6/2023 9:56:00 PM 19.90 38.10

130 9/6/2023 10:11:00 PM 19.90 38.10

131 9/6/2023 10:26:00 PM 20.00 38.10

132 9/6/2023 10:41:00 PM 20.00 38.10

133 9/6/2023 10:56:00 PM 20.00 38.10

134 9/6/2023 11:11:00 PM 20.00 38.00

135 9/6/2023 11:26:00 PM 20.10 38.00

136 9/6/2023 11:41:00 PM 20.10 38.00

137 9/6/2023 11:56:00 PM 20.10 38.00

138 9/7/2023 12:11:00 AM 20.10 37.90

139 9/7/2023 12:26:00 AM 20.10 37.80

140 9/7/2023 12:41:00 AM 20.00 37.80

141 9/7/2023 12:56:00 AM 20.00 37.70

142 9/7/2023 1:11:00 AM 20.00 37.70

143 9/7/2023 1:26:00 AM 20.00 37.60

144 9/7/2023 1:41:00 AM 20.00 37.60

145 9/7/2023 1:56:00 AM 20.00 37.70

146 9/7/2023 2:11:00 AM 20.00 37.70

147 9/7/2023 2:26:00 AM 20.00 37.60

148 9/7/2023 2:41:00 AM 20.00 37.50

149 9/7/2023 2:56:00 AM 20.00 37.60

150 9/7/2023 3:11:00 AM 19.90 37.60

151 9/7/2023 3:26:00 AM 19.90 37.50

152 9/7/2023 3:41:00 AM 19.90 37.50

153 9/7/2023 3:56:00 AM 19.90 37.50

154 9/7/2023 4:11:00 AM 19.90 37.40

155 9/7/2023 4:26:00 AM 19.90 37.40

156 9/7/2023 4:41:00 AM 19.80 37.30

157 9/7/2023 4:56:00 AM 19.80 37.20

158 9/7/2023 5:11:00 AM 19.80 37.20

159 9/7/2023 5:26:00 AM 19.80 37.10

160 9/7/2023 5:41:00 AM 19.80 37.00

161 9/7/2023 5:56:00 AM 19.70 37.00

162 9/7/2023 6:11:00 AM 19.70 37.00

163 9/7/2023 6:26:00 AM 19.70 36.70

164 9/7/2023 6:41:00 AM 19.70 37.00

165 9/7/2023 6:56:00 AM 19.70 37.10

166 9/7/2023 7:11:00 AM 19.70 37.20


Page 5/7
9/8/2023 2:37:39 PM

ID Date/time Temperature [°C] Humidity [%rH]

167 9/7/2023 7:26:00 AM 19.70 37.40

168 9/7/2023 7:41:00 AM 19.70 37.60

169 9/7/2023 7:56:00 AM 19.70 37.80

170 9/7/2023 8:11:00 AM 19.70 38.00

171 9/7/2023 8:26:00 AM 19.80 38.30

172 9/7/2023 8:41:00 AM 19.80 38.50

173 9/7/2023 8:56:00 AM 19.90 38.70

174 9/7/2023 9:11:00 AM 20.00 39.10

175 9/7/2023 9:26:00 AM 20.10 39.40

176 9/7/2023 9:41:00 AM 20.10 39.60

177 9/7/2023 9:56:00 AM 20.20 39.60

178 9/7/2023 10:11:00 AM 20.20 39.80

179 9/7/2023 10:26:00 AM 20.30 39.80

180 9/7/2023 10:41:00 AM 20.30 40.00

181 9/7/2023 10:56:00 AM 20.40 40.20

182 9/7/2023 11:11:00 AM 20.40 40.40

183 9/7/2023 11:26:00 AM 20.50 40.60

184 9/7/2023 11:41:00 AM 20.60 40.80

185 9/7/2023 11:56:00 AM 20.60 41.00

186 9/7/2023 12:11:00 PM 20.70 41.10

187 9/7/2023 12:26:00 PM 20.80 41.30

188 9/7/2023 12:41:00 PM 20.80 41.40

189 9/7/2023 12:56:00 PM 20.80 41.50

190 9/7/2023 1:11:00 PM 20.90 41.70

191 9/7/2023 1:26:00 PM 21.10 41.60

192 9/7/2023 1:41:00 PM 21.10 41.50

193 9/7/2023 1:56:00 PM 21.10 41.60

194 9/7/2023 2:11:00 PM 21.00 41.40

195 9/7/2023 2:26:00 PM 21.00 41.40

196 9/7/2023 2:41:00 PM 21.00 41.30

197 9/7/2023 2:56:00 PM 21.00 41.30

198 9/7/2023 3:11:00 PM 21.00 41.30

199 9/7/2023 3:26:00 PM 21.00 41.30

200 9/7/2023 3:41:00 PM 21.00 41.20

201 9/7/2023 3:56:00 PM 21.00 41.20

202 9/7/2023 4:11:00 PM 21.00 41.20

203 9/7/2023 4:26:00 PM 21.00 41.40

204 9/7/2023 4:41:00 PM 21.10 41.40

205 9/7/2023 4:56:00 PM 21.10 41.30

206 9/7/2023 5:11:00 PM 21.10 41.20

207 9/7/2023 5:26:00 PM 21.10 41.00

208 9/7/2023 5:41:00 PM 21.00 41.00

209 9/7/2023 5:56:00 PM 21.00 40.80

210 9/7/2023 6:11:00 PM 21.00 40.70

211 9/7/2023 6:26:00 PM 21.00 40.70


Page 6/7
9/8/2023 2:37:39 PM

ID Date/time Temperature [°C] Humidity [%rH]

212 9/7/2023 6:41:00 PM 21.00 40.60

213 9/7/2023 6:56:00 PM 21.00 40.50

214 9/7/2023 7:11:00 PM 21.00 40.30

215 9/7/2023 7:26:00 PM 21.00 40.20

216 9/7/2023 7:41:00 PM 21.00 40.10

217 9/7/2023 7:56:00 PM 21.00 40.00

218 9/7/2023 8:11:00 PM 21.00 39.90

219 9/7/2023 8:26:00 PM 21.00 39.90

220 9/7/2023 8:41:00 PM 21.00 39.80

221 9/7/2023 8:56:00 PM 21.00 39.70

222 9/7/2023 9:11:00 PM 21.00 39.70

223 9/7/2023 9:26:00 PM 21.00 39.60

224 9/7/2023 9:41:00 PM 21.00 39.50

225 9/7/2023 9:56:00 PM 20.90 39.50

226 9/7/2023 10:11:00 PM 20.90 39.40

227 9/7/2023 10:26:00 PM 20.90 39.30

228 9/7/2023 10:41:00 PM 20.90 39.20

229 9/7/2023 10:56:00 PM 20.90 39.10

230 9/7/2023 11:11:00 PM 20.90 39.00

231 9/7/2023 11:26:00 PM 20.90 39.00

232 9/7/2023 11:41:00 PM 20.80 39.00

233 9/7/2023 11:56:00 PM 20.80 39.00

234 9/8/2023 12:11:00 AM 20.80 39.00

235 9/8/2023 12:26:00 AM 20.80 38.90

236 9/8/2023 12:41:00 AM 20.80 38.80

237 9/8/2023 12:56:00 AM 20.80 38.70

238 9/8/2023 1:11:00 AM 20.80 38.70

239 9/8/2023 1:26:00 AM 20.70 38.50

240 9/8/2023 1:41:00 AM 20.70 38.40

241 9/8/2023 1:56:00 AM 20.70 38.30

242 9/8/2023 2:11:00 AM 20.70 38.20

243 9/8/2023 2:26:00 AM 20.70 38.10

244 9/8/2023 2:41:00 AM 20.70 38.00

245 9/8/2023 2:56:00 AM 20.60 37.90

246 9/8/2023 3:11:00 AM 20.60 37.80

247 9/8/2023 3:26:00 AM 20.60 37.70

248 9/8/2023 3:41:00 AM 20.60 37.60

249 9/8/2023 3:56:00 AM 20.50 37.50

250 9/8/2023 4:11:00 AM 20.50 37.50

251 9/8/2023 4:26:00 AM 20.50 37.40

252 9/8/2023 4:41:00 AM 20.50 37.40

253 9/8/2023 4:56:00 AM 20.50 37.40

254 9/8/2023 5:11:00 AM 20.40 37.30

255 9/8/2023 5:26:00 AM 20.40 37.20

256 9/8/2023 5:41:00 AM 20.40 37.10


Page 7/7
9/8/2023 2:37:39 PM

ID Date/time Temperature [°C] Humidity [%rH]

257 9/8/2023 5:56:00 AM 20.40 37.10

258 9/8/2023 6:11:00 AM 20.30 37.10

259 9/8/2023 6:26:00 AM 20.30 37.10

260 9/8/2023 6:41:00 AM 20.30 37.10

261 9/8/2023 6:56:00 AM 20.30 37.10

262 9/8/2023 7:11:00 AM 20.30 37.20

263 9/8/2023 7:26:00 AM 20.30 37.30

264 9/8/2023 7:41:00 AM 20.30 37.40

265 9/8/2023 7:56:00 AM 20.40 37.50

266 9/8/2023 8:11:00 AM 20.40 37.80

267 9/8/2023 8:26:00 AM 20.40 37.90

268 9/8/2023 8:41:00 AM 20.40 38.20

269 9/8/2023 8:56:00 AM 20.50 38.40

270 9/8/2023 9:11:00 AM 20.50 38.60

271 9/8/2023 9:26:00 AM 20.60 38.90

272 9/8/2023 9:41:00 AM 20.60 39.10

273 9/8/2023 9:56:00 AM 20.70 39.30

274 9/8/2023 10:11:00 AM 20.80 39.40

275 9/8/2023 10:26:00 AM 20.80 39.60

276 9/8/2023 10:41:00 AM 20.90 39.80

277 9/8/2023 10:56:00 AM 20.90 39.90

278 9/8/2023 11:11:00 AM 21.00 40.10

279 9/8/2023 11:26:00 AM 21.00 40.20

280 9/8/2023 11:41:00 AM 21.10 40.20

281 9/8/2023 11:56:00 AM 21.10 40.30

282 9/8/2023 12:11:00 PM 21.20 40.40

283 9/8/2023 12:26:00 PM 21.30 40.50

284 9/8/2023 12:41:00 PM 21.30 40.50

285 9/8/2023 12:56:00 PM 21.40 40.60

286 9/8/2023 1:11:00 PM 21.40 40.70

287 9/8/2023 1:26:00 PM 21.40 40.80

288 9/8/2023 1:41:00 PM 21.50 41.00

289 9/8/2023 1:56:00 PM 21.50 41.20

Potrebbero piacerti anche